Wind_Speed
14 14 14 14 13 12 12 9 10 15 14 17 19 22 21 23 21 18 31 33 39 38 36 38 39 40 41 39 37 34 33 34 37 38 38 34 32 29 30 31 32 30 31 32 35 36 36 36 37
18 18 18 16 13 12 12 11 20 13 16 21 24 26 28 23 27 29 37 35 36 34 31 34 38 39 40 36 36 37 37 39 40 38 37 35 35 34 33 31 30 30 29 30 31 35 35 36 36
20 20 19 16 16 9 14 17 10 18 25 24 25 30 27 28 33 30 31 32 33 30 30 34 40 41 42 40 38 37 38 41 39 36 35 34 34 35 34 32 31 28 29 29 30 32 32 35 35
19 21 22 19 15 14 22 12 17 32 20 26 25 25 32 37 34 32 31 32 34 29 31 35 39 42 42 38 35 36 39 41 36 33 35 35 35 36 38 37 36 34 29 27 27 27 30 31 32
26 25 24 24 22 18 24 24 23 25 20 25 25 25 24 45 39 31 32 30 32 30 31 35 39 41 41 37 35 37 41 37 33 34 38 39 39 38 38 37 37 38 37 34 30 29 26 31 30
30 31 29 27 20 18 25 24 29 24 21 20 32 30 27 43 35 32 32 32 33 33 32 36 40 43 43 43 39 39 42 35 34 35 38 39 38 36 34 32 31 29 30 32 31 30 31 29 29
34 35 35 30 21 16 18 23 23 22 19 22 32 31 26 34 43 36 38 38 34 36 35 39 45 45 46 45 41 41 41 34 35 37 37 36 34 33 33 33 32 31 30 31 31 31 30 32 31
38 39 41 35 31 30 22 31 30 24 21 29 33 38 30 24 45 40 41 40 40 38 39 41 46 49 49 45 42 41 38 34 37 37 39 37 33 33 33 34 32 32 31 30 30 30 31 31 35
40 45 46 38 35 28 23 30 26 39 42 38 39 41 46 47 45 38 41 43 42 45 44 43 48 53 54 47 42 44 39 37 37 38 36 36 35 34 35 32 32 32 32 29 28 28 30 32 33
49 48 47 40 36 32 23 27 22 36 35 38 41 37 35 25 44 42 42 43 45 46 53 50 48 53 53 46 41 43 41 36 35 37 36 36 36 35 37 36 34 32 31 29 29 30 30 29 33
45 49 46 44 36 39 40 36 40 40 42 39 39 36 45 45 47 45 44 44 42 46 50 55 49 49 48 43 40 43 39 35 34 37 36 36 36 36 35 32 32 31 31 30 29 29 29 28 29
55 54 50 48 49 48 43 41 43 50 52 49 53 47 47 44 47 47 45 42 43 45 51 61 49 41 42 40 40 41 35 35 34 37 38 37 36 33 31 33 32 31 29 28 28 28 29 27 29
60 57 55 55 57 57 54 55 59 59 51 54 55 51 53 50 44 43 46 46 45 46 42 47 42 36 37 38 42 37 37 36 37 41 40 37 36 32 32 31 32 29 26 28 29 29 29 31 30
61 60 63 63 60 57 59 59 58 57 48 53 56 50 52 49 42 48 50 45 40 39 39 32 31 30 33 36 41 35 35 38 38 44 38 35 36 34 34 33 31 27 26 27 26 26 24 25 28
55 61 62 61 55 53 52 55 53 51 46 49 52 49 50 42 42 48 43 39 32 27 21 18 24 28 32 37 41 37 36 41 43 40 38 37 36 37 35 35 31 28 28 29 28 28 28 26 25
61 61 60 50 51 52 47 56 52 46 44 43 49 48 48 41 45 41 41 30 23 21 17 18 22 25 31 36 36 36 46 41 42 41 40 37 38 37 38 34 31 30 31 30 29 30 28 26 25
59 57 49 51 48 47 47 52 46 42 47 47 50 54 47 40 45 37 38 24 22 19 19 23 23 27 32 35 35 34 37 40 43 42 41 38 37 37 34 33 32 32 31 29 28 26 25 24 23
48 52 57 56 49 45 46 51 42 44 43 44 45 55 45 42 42 37 33 22 24 19 23 25 25 29 30 33 32 34 38 41 42 41 40 38 38 36 34 34 32 30 28 25 25 26 25 23 26
53 60 58 51 45 40 44 47 49 51 46 45 46 49 40 39 41 37 28 23 23 21 25 25 27 30 33 33 34 36 39 40 40 38 37 37 38 36 36 33 32 28 25 25 24 23 22 24 25
58 59 53 49 49 44 46 51 41 47 45 45 45 44 39 39 40 34 27 24 19 22 22 25 28 32 35 36 37 38 37 36 36 36 36 37 36 35 34 33 28 25 23 23 21 20 19 18 20
57 55 49 45 44 46 45 51 49 47 45 45 40 40 44 37 33 28 26 23 19 22 22 24 28 33 36 35 36 35 32 33 33 35 35 31 34 34 30 26 25 22 20 17 16 15 16 17 18
54 51 47 46 49 52 38 48 41 44 43 40 32 37 29 30 27 27 26 22 22 22 21 25 29 35 35 34 31 29 28 31 30 32 31 32 30 28 27 22 20 17 13 13 13 12 13 13 13
51 45 48 48 52 44 46 50 36 40 41 30 34 24 29 29 25 27 26 21 21 20 24 27 32 36 30 30 27 25 28 27 30 28 28 29 26 24 20 17 13 11 11 10 9 9 8 8 8
54 50 48 48 45 50 41 47 42 34 35 36 21 25 28 23 25 24 24 20 20 20 23 31 35 28 27 26 21 24 25 26 23 23 26 23 21 16 13 12 11 9 8 7 6 5 6 6 8
62 57 49 49 52 53 41 42 41 31 36 23 28 26 23 21 19 25 20 19 17 20 27 31 29 24 23 19 22 22 23 20 20 23 20 19 16 13 11 11 8 6 5 6 9 7 4 3 5
67 64 61 57 53 45 41 46 36 32 23 28 28 21 21 19 23 21 18 16 17 23 27 29 22 21 17 19 20 20 17 18 19 21 17 14 13 12 10 5 3 4 9 12 8 6 7 8 9
70 64 55 43 32 33 29 29 32 16 20 26 21 13 18 19 22 17 15 13 19 23 26 23 20 15 16 16 16 14 15 18 19 16 12 11 11 9 5 5 7 9 10 7 6 5 7 10 12
68 59 53 54 49 38 26 25 22 16 27 21 15 16 17 18 15 15 13 16 19 22 22 19 17 13 13 14 15 14 15 18 13 9 9 8 9 8 6 8 10 9 7 6 6 8 5 2 8
70 54 59 47 42 34 29 24 23 28 26 20 17 14 20 20 14 13 15 16 19 19 20 18 13 12 12 14 16 11 14 7 6 6 8 8 7 6 8 7 8 8 9 9 8 5 3 3 7
64 56 53 54 47 33 21 21 18 24 18 21 17 18 19 13 11 11 14 18 18 19 17 14 10 10 10 13 9 10 3 5 6 7 9 7 5 6 10 9 8 9 8 6 5 4 4 4 7
Wind_Direction
223 242 257 269 263 273 284 271 230 258 287 288 298 310 317 315 317 298 308 308 310 309 308 306 304 304 309 313 317 317 317 316 317 316 315 311 309 308 302 294 291 285 279 272 262 260 261 260 258
236 237 238 245 258 286 308 240 246 268 263 287 296 306 314 317 313 316 313 315 311 309 310 307 304 306 308 313 317 315 316 318 319 317 314 311 306 301 298 295 298 293 284 276 266 261 262 261 259
237 248 250 251 256 242 281 262 279 246 280 290 300 302 303 306 312 316 309 314 314 316 314 308 305 306 307 312 317 314 318 319 319 316 314 310 304 300 298 297 292 294 288 283 273 263 259 261 258
241 246 251 251 250 265 231 273 245 265 296 290 289 301 300 302 312 310 309 308 312 320 314 310 309 310 312 314 312 317 320 320 319 317 310 304 303 300 297 292 290 292 288 283 281 272 260 252 253
246 247 249 252 257 243 260 249 255 262 271 278 279 296 299 299 308 305 307 305 306 310 315 318 314 313 315 313 315 320 324 321 319 315 307 305 306 303 298 296 289 286 285 284 279 276 271 262 255
245 250 250 253 258 262 260 264 271 270 274 274 279 288 301 304 304 303 300 296 298 305 308 308 318 317 317 313 316 320 324 320 318 309 303 305 308 305 302 300 296 289 285 280 275 270 269 263 256
247 249 248 246 241 246 264 271 268 270 276 268 273 288 299 302 300 306 302 300 299 301 309 312 314 312 318 312 314 316 322 316 313 311 307 307 305 301 301 302 298 296 290 283 280 273 266 260 256
247 250 249 245 243 248 263 259 274 264 266 253 274 286 292 280 293 301 299 301 304 301 307 312 311 315 316 310 310 316 318 310 310 313 312 313 305 302 303 304 301 296 292 285 278 276 271 262 257
244 246 248 246 246 259 269 271 263 268 268 269 278 290 293 288 290 291 294 300 306 309 310 308 306 311 311 310 308 315 315 307 309 314 312 310 305 303 300 301 297 296 294 285 282 280 274 267 258
243 248 253 252 249 255 256 262 274 265 282 275 272 287 292 295 294 295 296 302 304 307 307 306 305 306 306 303 304 311 310 307 314 315 309 307 301 299 302 300 297 294 290 281 280 279 273 267 261
247 250 251 252 259 258 261 265 258 260 263 272 276 283 282 284 289 296 296 297 299 302 296 298 297 298 298 295 305 308 302 306 311 313 309 308 307 306 304 300 293 292 289 282 280 276 272 265 261
246 250 248 254 249 254 259 270 265 264 264 264 271 271 278 289 287 292 294 295 295 294 292 290 290 285 289 291 304 301 296 302 311 315 311 312 310 309 304 301 295 294 288 283 280 278 270 265 262
251 252 255 263 263 262 262 261 268 269 267 260 265 270 273 286 289 286 286 293 299 289 281 280 282 284 281 290 297 297 301 308 305 310 311 313 311 308 304 298 297 293 288 286 281 275 270 266 264
253 254 261 264 263 264 264 268 268 267 273 261 265 273 275 282 290 283 288 300 292 286 277 277 279 279 281 288 294 291 303 304 307 308 309 311 308 305 301 298 298 291 286 283 282 277 274 271 265
257 259 261 260 262 266 268 261 257 265 275 266 262 273 278 281 286 282 293 294 293 288 290 282 270 278 280 282 286 291 302 309 302 308 310 309 307 304 301 298 294 287 286 281 278 274 273 271 265
254 258 258 262 270 269 267 266 266 267 271 266 268 271 277 281 283 294 296 287 286 292 295 282 285 291 285 286 286 287 289 300 307 306 307 306 306 301 299 297 295 290 289 285 278 280 276 271 262
255 258 264 265 261 263 263 275 274 267 265 266 271 272 274 275 283 291 289 281 281 290 287 285 293 289 285 282 284 281 294 294 300 302 303 306 302 302 302 300 298 293 290 284 281 279 274 269 263
260 265 263 268 273 262 267 274 275 274 269 265 266 274 273 276 280 288 281 276 279 281 281 284 290 283 281 284 284 286 292 297 300 300 303 302 301 300 300 301 298 297 293 287 282 276 268 259 261
260 259 264 267 274 271 276 267 266 274 273 272 272 273 274 276 283 288 271 268 273 276 277 290 288 284 285 288 284 287 292 295 297 299 300 299 300 298 300 300 298 294 290 291 283 271 266 265 261
249 254 257 265 266 258 265 272 265 269 273 273 274 277 279 273 281 282 262 258 273 278 286 287 287 285 289 286 282 285 290 295 295 298 298 299 297 300 300 300 295 288 289 287 279 270 268 252 248
245 250 256 266 265 263 263 263 274 276 279 277 272 272 268 282 278 267 257 254 271 276 278 283 283 289 285 282 284 289 291 297 299 299 301 300 302 303 302 300 291 287 285 277 273 270 262 254 253
246 251 252 254 255 257 263 274 277 274 275 279 276 265 276 278 261 253 249 256 272 281 275 273 285 293 284 286 289 290 298 301 298 299 303 304 305 304 300 297 291 288 278 276 274 266 261 255 250
241 241 248 248 252 259 261 266 274 266 278 284 264 268 266 260 244 251 243 258 278 271 267 277 286 294 285 291 292 298 301 298 302 302 305 308 310 310 306 301 296 290 282 277 270 252 244 221 201
231 234 237 245 251 253 262 262 270 278 287 269 257 246 250 242 243 240 242 265 264 263 273 280 291 288 289 292 297 301 297 303 303 304 309 315 318 315 308 310 307 294 275 259 219 185 174 196 206
223 226 230 238 245 256 259 260 276 283 281 263 246 250 237 233 232 232 251 258 258 270 276 286 287 290 294 299 302 295 300 305 303 312 315 323 328 321 322 324 309 292 242 178 178 198 218 169 182
221 223 228 237 243 258 266 270 284 283 262 241 228 232 231 228 226 233 251 246 263 274 284 287 285 295 298 305 297 296 300 302 310 316 322 332 328 336 339 344 47 103 134 144 132 128 163 159 161
220 220 233 227 246 253 254 274 283 273 234 227 223 208 222 223 228 234 239 246 268 279 290 280 290 287 306 302 309 302 301 309 318 315 334 341 340 353 49 94 118 123 136 142 132 138 136 152 148
210 224 213 220 228 233 251 256 259 217 212 198 216 221 224 214 212 225 234 252 270 286 280 279 286 289 302 302 313 311 302 317 317 333 355 359 5 40 100 131 128 119 137 144 145 141 158 139 149
208 207 215 220 223 233 241 250 264 215 213 205 223 220 222 208 213 223 237 261 274 284 276 279 278 295 296 308 316 311 317 333 354 16 24 19 30 81 120 137 138 127 134 139 145 158 209 116 148
208 206 208 211 213 216 228 225 232 209 205 211 210 219 215 202 205 227 250 267 281 277 272 278 272 296 297 313 316 312 331 16 42 45 35 32 47 97 126 129 136 133 143 152 167 168 165 91 139
Height
5891 5894 5895 5896 5899 5897 5897 5899 5902 5897 5896 5894 5895 5894 5892 5889 5889 5890 5883 5880 5875 5871 5867 5863 5861 5859 5858 5858 5856 5854 5853 5850 5847 5844 5841 5839 5838 5836 5835 5833 5832 5832 5832 5831 5831 5832 5833 5834 5835
5890 5891 5892 5893 5895 5895 5900 5899 5894 5895 5892 5891 5890 5889 5886 5885 5884 5883 5875 5875 5870 5868 5864 5860 5857 5856 5854 5854 5852 5850 5848 5845 5842 5839 5836 5833 5831 5830 5829 5827 5824 5824 5825 5825 5824 5825 5825 5826 5828
5885 5888 5889 5890 5891 5896 5896 5894 5893 5887 5887 5887 5887 5885 5883 5880 5880 5879 5875 5871 5867 5864 5860 5857 5852 5852 5850 5850 5848 5846 5843 5840 5837 5835 5832 5829 5827 5825 5823 5821 5820 5818 5817 5817 5819 5819 5819 5819 5821
5882 5883 5886 5887 5889 5896 5895 5895 5891 5886 5885 5883 5885 5883 5877 5874 5876 5874 5871 5869 5865 5862 5858 5854 5850 5848 5846 5846 5844 5842 5839 5835 5832 5830 5828 5825 5822 5819 5817 5815 5814 5813 5812 5811 5810 5811 5812 5813 5814
5878 5879 5880 5883 5885 5888 5887 5888 5886 5884 5884 5881 5879 5880 5877 5865 5870 5869 5867 5866 5862 5859 5856 5853 5848 5845 5843 5842 5840 5838 5835 5831 5828 5825 5822 5819 5816 5813 5810 5808 5807 5806 5805 5804 5804 5804 5805 5805 5807
5873 5874 5875 5879 5882 5885 5883 5881 5879 5879 5879 5880 5874 5875 5875 5865 5867 5865 5863 5861 5858 5855 5853 5849 5845 5841 5839 5837 5836 5833 5830 5826 5824 5821 5819 5815 5811 5808 5804 5802 5801 5800 5798 5797 5796 5797 5797 5799 5801
5868 5869 5871 5874 5879 5880 5878 5877 5876 5877 5879 5875 5871 5871 5873 5865 5856 5861 5858 5855 5854 5850 5849 5844 5841 5837 5836 5834 5832 5829 5826 5823 5820 5816 5814 5811 5807 5804 5800 5796 5794 5793 5792 5790 5789 5789 5790 5791 5793
5862 5862 5862 5867 5872 5873 5876 5868 5871 5869 5872 5864 5865 5864 5868 5865 5854 5855 5853 5850 5847 5846 5843 5841 5836 5833 5831 5830 5827 5825 5822 5818 5814 5812 5808 5806 5802 5798 5795 5791 5789 5787 5785 5784 5782 5782 5782 5784 5785
5855 5853 5855 5862 5865 5868 5870 5865 5869 5859 5860 5861 5860 5860 5857 5854 5853 5852 5849 5846 5844 5840 5836 5835 5832 5828 5826 5824 5822 5819 5817 5813 5810 5806 5803 5800 5796 5792 5789 5788 5784 5781 5779 5777 5776 5776 5776 5776 5777
5844 5845 5850 5858 5859 5860 5863 5863 5862 5858 5852 5855 5855 5856 5853 5843 5843 5845 5844 5843 5840 5835 5828 5827 5827 5823 5821 5818 5817 5815 5811 5808 5805 5801 5798 5795 5792 5788 5783 5780 5778 5775 5773 5771 5770 5769 5769 5769 5770
5837 5837 5844 5849 5853 5853 5852 5856 5855 5850 5849 5852 5850 5851 5844 5843 5839 5839 5838 5837 5835 5833 5830 5820 5820 5819 5816 5813 5811 5810 5806 5803 5800 5796 5793 5789 5785 5781 5777 5775 5772 5770 5767 5765 5763 5762 5762 5763 5764
5827 5829 5833 5839 5842 5842 5844 5846 5843 5842 5842 5843 5842 5842 5837 5838 5836 5834 5831 5830 5829 5828 5822 5812 5811 5813 5812 5808 5807 5804 5801 5799 5795 5792 5789 5784 5779 5776 5773 5769 5766 5763 5760 5758 5757 5756 5756 5757 5757
5819 5824 5825 5829 5831 5831 5832 5831 5832 5831 5836 5835 5832 5833 5831 5830 5829 5829 5826 5822 5820 5816 5814 5805 5804 5806 5807 5805 5801 5800 5798 5794 5790 5787 5783 5779 5774 5770 5767 5764 5761 5756 5754 5752 5751 5750 5750 5749 5750
5815 5814 5814 5817 5818 5820 5820 5823 5824 5824 5828 5828 5826 5827 5825 5824 5824 5820 5817 5815 5810 5805 5800 5799 5798 5800 5802 5800 5797 5797 5793 5788 5786 5781 5777 5774 5769 5764 5760 5758 5754 5750 5748 5746 5745 5744 5743 5742 5741
5801 5800 5802 5804 5809 5809 5814 5807 5811 5818 5820 5818 5820 5819 5816 5817 5816 5813 5812 5807 5802 5797 5795 5794 5794 5795 5796 5795 5793 5790 5787 5784 5779 5777 5772 5767 5763 5758 5754 5750 5747 5744 5741 5739 5738 5736 5736 5734 5735
5787 5791 5789 5800 5802 5801 5803 5795 5808 5813 5811 5810 5811 5811 5809 5809 5808 5808 5804 5801 5796 5794 5792 5791 5790 5790 5791 5790 5788 5785 5781 5779 5774 5771 5766 5762 5757 5751 5746 5744 5740 5737 5734 5731 5729 5727 5726 5726 5727
5777 5777 5786 5791 5794 5796 5796 5789 5796 5803 5802 5802 5803 5799 5800 5801 5801 5800 5796 5794 5792 5789 5788 5788 5787 5785 5786 5784 5782 5779 5776 5772 5769 5765 5760 5754 5750 5745 5741 5736 5733 5729 5726 5724 5722 5720 5719 5719 5720
5774 5773 5776 5780 5789 5787 5786 5782 5791 5791 5790 5792 5793 5789 5792 5794 5794 5792 5790 5788 5786 5784 5784 5783 5782 5781 5780 5779 5776 5773 5770 5766 5762 5758 5753 5748 5743 5738 5734 5729 5725 5722 5718 5716 5714 5713 5713 5713 5712
5768 5765 5767 5773 5779 5776 5777 5777 5783 5779 5779 5782 5782 5782 5786 5787 5785 5785 5783 5782 5781 5780 5780 5779 5778 5777 5775 5772 5769 5767 5764 5760 5756 5751 5746 5741 5736 5730 5726 5722 5718 5714 5712 5709 5706 5705 5704 5705 5705
5752 5753 5760 5767 5771 5772 5771 5766 5771 5773 5772 5773 5775 5777 5778 5777 5778 5778 5776 5777 5775 5775 5775 5774 5773 5772 5769 5766 5763 5760 5758 5753 5749 5744 5740 5735 5728 5724 5719 5715 5710 5707 5704 5701 5699 5697 5697 5698 5699
5742 5746 5755 5760 5763 5759 5760 5756 5760 5762 5763 5763 5766 5768 5766 5770 5771 5771 5770 5771 5770 5770 5770 5770 5769 5766 5763 5760 5758 5755 5752 5747 5743 5737 5732 5728 5721 5716 5711 5707 5703 5700 5697 5696 5695 5694 5694 5694 5694
5733 5742 5749 5751 5749 5745 5756 5746 5754 5754 5752 5755 5760 5756 5759 5763 5762 5763 5766 5765 5765 5766 5766 5765 5764 5761 5758 5755 5752 5749 5745 5741 5736 5731 5725 5719 5715 5709 5704 5700 5697 5694 5693 5692 5691 5691 5690 5690 5691
5728 5735 5736 5740 5738 5743 5745 5740 5745 5748 5747 5751 5746 5750 5752 5754 5755 5756 5760 5760 5761 5761 5761 5760 5758 5755 5752 5750 5747 5743 5740 5736 5730 5725 5720 5714 5709 5703 5699 5696 5692 5690 5689 5689 5688 5688 5689 5689 5690
5718 5722 5727 5729 5733 5727 5740 5733 5732 5743 5743 5739 5741 5743 5745 5748 5750 5752 5755 5756 5757 5757 5757 5756 5753 5750 5748 5745 5742 5738 5735 5730 5725 5720 5715 5709 5704 5698 5695 5692 5689 5687 5687 5686 5687 5688 5688 5689 5690
5700 5710 5714 5719 5720 5716 5733 5726 5729 5738 5733 5734 5735 5737 5740 5742 5745 5748 5750 5752 5752 5753 5753 5751 5748 5745 5743 5740 5737 5734 5730 5726 5721 5716 5711 5705 5700 5696 5693 5690 5687 5686 5685 5686 5688 5689 5689 5691 5692
5684 5694 5701 5707 5713 5721 5723 5716 5726 5727 5725 5726 5728 5733 5737 5739 5740 5744 5747 5748 5749 5749 5748 5746 5744 5742 5739 5736 5733 5730 5726 5722 5718 5713 5708 5703 5698 5694 5692 5689 5688 5686 5687 5688 5690 5690 5690 5692 5693
5671 5675 5703 5708 5715 5717 5723 5725 5720 5721 5722 5724 5728 5731 5732 5735 5737 5741 5742 5744 5745 5745 5744 5742 5740 5738 5736 5733 5730 5726 5722 5719 5714 5710 5705 5701 5698 5695 5693 5691 5691 5690 5692 5692 5692 5693 5693 5694 5696
5656 5683 5685 5693 5702 5710 5718 5721 5722 5720 5719 5723 5726 5728 5730 5731 5734 5737 5739 5741 5741 5741 5740 5738 5736 5735 5733 5730 5727 5723 5719 5715 5711 5707 5704 5700 5698 5696 5695 5694 5694 5693 5694 5695 5694 5695 5696 5696 5697
5647 5660 5672 5692 5698 5707 5714 5716 5716 5714 5717 5722 5724 5726 5726 5728 5731 5733 5736 5737 5738 5738 5736 5735 5733 5732 5730 5728 5724 5720 5717 5713 5710 5706 5703 5701 5700 5698 5697 5697 5697 5696 5697 5697 5698 5699 5699 5699 5700
5641 5654 5667 5678 5689 5699 5705 5713 5710 5711 5715 5719 5721 5723 5724 5726 5729 5732 5733 5734 5735 5735 5733 5731 5730 5729 5727 5725 5721 5718 5715 5712 5709 5706 5704 5703 5701 5700 5699 5699 5699 5700 5700 5701 5701 5701 5701 5702 5702